Ohio State University (OSU)

 

Airport Diagram
Current Weather/Forecast (VFR Conditions)
METAR KOSU 182353Z 30009KT 10SM CLR 13/M04 A2986 RMK AO2 SLP113 T01331044 10172 20133 50001
TAF

Airport Information

All Charts
General
Chart Name View
AIRPORT DIAGRAM
AIRPORT DIAGRAM
TAKEOFF MINIMUMS
ALTERNATE MINIMUMS
TAKEOFF MINIMUMS
ALTERNATE MINIMUMS
HOT SPOT
HOT SPOT

Arrivals
Chart Name Download
BREMN FIVE
BREMN FIVE, CONT.1
GAILL THREE (RNAV)
GUNNE FOUR
GUNNE FOUR, CONT.1
BREMN FIVE
BREMN FIVE, CONT.1
GAILL THREE (RNAV)
GUNNE FOUR
GUNNE FOUR, CONT.1

Approaches
Chart Name Download
ILS OR LOC RWY 09R
RNAV (GPS) RWY 09R
RNAV (GPS) RWY 27L
NDB RWY 09R
ILS OR LOC RWY 09R
RNAV (GPS) RWY 09R
RNAV (GPS) RWY 27L
NDB RWY 09R


Airport Statistics
Departures Arrivals Local
All Collected Stats since June 2016: 139 72 11
2021 Stats: 35 21 0
April Stats: 5 1 0

Inbound Traffic (Arrivals) - 0

No inbound traffic.


Outbound Traffic (Departures) - 0

No outbound traffic.


Local Traffic (Pattern) - 0

No local traffic.